timestamp,wind_dir_avg,wind_spd_avg,wind_spd_max_dir,wind_spd_gust,battery_voltage,lat,long
2021-02-24 00:04:01+00:00,183.0,10.14,191.0,12.28,12.25,47.59359,-54.27349
2021-02-24 00:14:01+00:00,195.0,11.52,191.0,13.9,12.33,47.59359,-54.27349
2021-02-24 00:24:01+00:00,200.0,11.55,203.0,12.73,12.33,47.59359,-54.27349
2021-02-24 00:34:01+00:00,205.0,11.59,206.0,13.11,12.33,47.59359,-54.27349
2021-02-24 00:44:01+00:00,210.0,11.24,212.0,12.79,12.33,47.59359,-54.27349
2021-02-24 00:54:01+00:00,220.0,11.39,217.0,12.7,12.33,47.59359,-54.27349
2021-02-24 01:04:01+00:00,213.0,9.91,216.0,11.8,12.33,47.59359,-54.27349
2021-02-24 01:14:01+00:00,220.0,9.16,220.0,10.37,12.25,47.59359,-54.27349
2021-02-24 01:24:01+00:00,224.0,6.6,227.0,8.22,12.25,47.59359,-54.27349
2021-02-24 01:34:01+00:00,220.0,7.16,231.0,8.43,12.25,47.59359,-54.27349
2021-02-24 01:44:01+00:00,221.0,7.2,234.0,9.97,12.25,47.59359,-54.27349
2021-02-24 01:54:01+00:00,230.0,8.28,229.0,10.07,12.25,47.59359,-54.27349
2021-02-24 02:04:01+00:00,236.0,10.65,234.0,12.4,12.25,47.59359,-54.27349
2021-02-24 02:14:01+00:00,241.0,10.09,243.0,11.76,12.17,47.59359,-54.27349
2021-02-24 02:24:01+00:00,240.0,9.93,242.0,12.33,12.17,47.59359,-54.27349
2021-02-24 02:34:01+00:00,250.0,10.06,250.0,11.34,12.17,47.59359,-54.27349
2021-02-24 02:44:01+00:00,242.0,10.19,243.0,11.95,12.17,47.59359,-54.27349
2021-02-24 02:54:01+00:00,245.0,9.03,247.0,12.01,12.17,47.59359,-54.27349
2021-02-24 03:04:01+00:00,239.0,7.39,250.0,10.54,12.17,47.59359,-54.27349
2021-02-24 03:14:01+00:00,245.0,9.97,248.0,11.8,12.25,47.59359,-54.27349
2021-02-24 03:24:01+00:00,241.0,10.45,245.0,11.94,12.25,47.59359,-54.27349
2021-02-24 03:34:01+00:00,241.0,9.47,248.0,11.72,12.25,47.59359,-54.27349
2021-02-24 03:44:01+00:00,242.0,9.1,253.0,13.46,12.25,47.59359,-54.27349
2021-02-24 03:54:01+00:00,225.0,5.88,239.0,9.32,12.25,47.59359,-54.27349
2021-02-24 04:04:01+00:00,235.0,9.13,233.0,11.92,12.25,47.59359,-54.27349
2021-02-24 04:14:01+00:00,231.0,7.93,236.0,9.49,12.17,47.59359,-54.27349
2021-02-24 04:24:01+00:00,227.0,7.73,236.0,10.17,12.17,47.59359,-54.27349
2021-02-24 04:34:01+00:00,230.0,7.4,231.0,9.0,12.17,47.59359,-54.27349
2021-02-24 04:44:01+00:00,228.0,7.01,232.0,8.81,12.17,47.59359,-54.27349
2021-02-24 04:54:01+00:00,229.0,6.08,241.0,7.84,12.17,47.59359,-54.27349
2021-02-24 05:04:01+00:00,227.0,7.46,231.0,8.9,12.17,47.59359,-54.27349
2021-02-24 05:14:01+00:00,226.0,6.29,233.0,8.29,12.25,47.59359,-54.27349
2021-02-24 05:24:01+00:00,228.0,6.9,224.0,8.93,12.25,47.59359,-54.27349
2021-02-24 05:34:01+00:00,226.0,6.43,226.0,8.16,12.25,47.59359,-54.27349
2021-02-24 05:44:01+00:00,223.0,6.98,225.0,8.6,12.25,47.59359,-54.27349
2021-02-24 05:54:01+00:00,226.0,7.01,229.0,8.12,12.25,47.59359,-54.27349
2021-02-24 06:04:01+00:00,226.0,6.4,231.0,7.69,12.25,47.59359,-54.27349
2021-02-24 06:14:01+00:00,226.0,7.27,228.0,8.98,12.17,47.59359,-54.27349
2021-02-24 06:24:01+00:00,231.0,7.98,230.0,9.24,12.17,47.59359,-54.27349
2021-02-24 06:34:01+00:00,233.0,7.93,230.0,8.81,12.17,47.59359,-54.27349
2021-02-24 06:44:01+00:00,225.0,8.05,227.0,9.36,12.17,47.59359,-54.27349
2021-02-24 06:54:01+00:00,228.0,7.09,230.0,8.75,12.17,47.59359,-54.27349
2021-02-24 07:04:01+00:00,232.0,6.91,234.0,8.66,12.17,47.59359,-54.27349
2021-02-24 07:14:01+00:00,228.0,7.06,227.0,8.55,12.25,47.59359,-54.27349
2021-02-24 07:24:01+00:00,228.0,7.18,230.0,8.53,12.25,47.59359,-54.27349
2021-02-24 07:34:01+00:00,226.0,6.95,227.0,7.94,12.25,47.59359,-54.27349
2021-02-24 07:44:01+00:00,231.0,8.13,234.0,9.59,12.25,47.59359,-54.27349
2021-02-24 07:54:01+00:00,228.0,7.96,224.0,9.48,12.25,47.59359,-54.27349
2021-02-24 08:04:01+00:00,225.0,7.94,232.0,8.85,12.25,47.59359,-54.27349
2021-02-24 08:14:01+00:00,228.0,8.77,221.0,10.11,12.17,47.59359,-54.27349
2021-02-24 08:24:01+00:00,228.0,8.58,225.0,10.2,12.17,47.59359,-54.27349
2021-02-24 08:34:01+00:00,231.0,7.29,230.0,8.44,12.17,47.59359,-54.27349
2021-02-24 08:44:01+00:00,228.0,7.28,232.0,8.46,12.17,47.59359,-54.27349
2021-02-24 08:54:01+00:00,231.0,6.25,237.0,7.25,12.17,47.59359,-54.27349
2021-02-24 09:04:01+00:00,230.0,5.61,236.0,7.22,12.17,47.59359,-54.27349
2021-02-24 09:14:01+00:00,238.0,6.5,241.0,7.2,12.17,47.59359,-54.27349
2021-02-24 09:24:01+00:00,254.0,8.36,255.0,9.13,12.17,47.59359,-54.27349
2021-02-24 09:34:01+00:00,237.0,6.65,237.0,7.84,12.17,47.59359,-54.27349
2021-02-24 09:44:01+00:00,237.0,5.95,238.0,6.92,12.17,47.59359,-54.27349
2021-02-24 09:54:01+00:00,243.0,5.98,244.0,6.83,12.17,47.59359,-54.27349
2021-02-24 10:04:01+00:00,253.0,5.48,258.0,6.28,12.17,47.59359,-54.27349
2021-02-24 10:14:01+00:00,259.0,4.27,254.0,5.0,12.25,47.59359,-54.27349
2021-02-24 10:24:01+00:00,263.0,4.76,268.0,5.66,12.25,47.59359,-54.27349
2021-02-24 10:34:01+00:00,269.0,5.1,264.0,5.88,12.25,47.59359,-54.27349
2021-02-24 10:44:01+00:00,273.0,4.3,269.0,5.0,12.25,47.59359,-54.27349
2021-02-24 10:54:01+00:00,276.0,5.32,275.0,6.44,12.25,47.59359,-54.27349
2021-02-24 11:04:01+00:00,301.0,5.51,299.0,6.55,12.25,47.59359,-54.27349
2021-02-24 11:14:01+00:00,312.0,8.21,316.0,9.19,12.25,47.59359,-54.27349
2021-02-24 11:24:01+00:00,319.0,5.76,323.0,6.56,12.25,47.59359,-54.27349
2021-02-24 11:34:01+00:00,311.0,5.67,316.0,6.32,12.25,47.59359,-54.27349
2021-02-24 11:44:01+00:00,321.0,7.48,318.0,9.15,12.25,47.59359,-54.27349
2021-02-24 11:54:01+00:00,319.0,5.67,327.0,7.42,12.25,47.59359,-54.27349
2021-02-24 12:04:01+00:00,307.0,7.99,300.0,9.83,12.25,47.59359,-54.27349
2021-02-24 12:14:01+00:00,299.0,4.83,292.0,5.72,13.53,47.59359,-54.27349
2021-02-24 12:24:01+00:00,314.0,5.91,323.0,7.56,13.53,47.59359,-54.27349
2021-02-24 12:34:01+00:00,313.0,6.33,303.0,7.96,13.53,47.59359,-54.27349
2021-02-24 12:44:01+00:00,314.0,7.99,302.0,11.36,13.53,47.59359,-54.27349
2021-02-24 12:54:01+00:00,306.0,8.13,304.0,10.15,13.53,47.59359,-54.27349
2021-02-24 13:04:01+00:00,306.0,9.2,302.0,11.43,13.53,47.59359,-54.27349
2021-02-24 13:14:01+00:00,305.0,6.52,292.0,8.89,13.37,47.59359,-54.27349
2021-02-24 13:24:01+00:00,317.0,6.75,314.0,8.76,13.37,47.59359,-54.27349
2021-02-24 13:34:01+00:00,302.0,7.94,293.0,11.36,13.37,47.59359,-54.27349
2021-02-24 13:44:01+00:00,310.0,5.74,302.0,7.59,13.37,47.59359,-54.27349
2021-02-24 13:54:01+00:00,318.0,7.78,300.0,9.93,13.37,47.59359,-54.27349
2021-02-24 14:04:01+00:00,321.0,8.49,312.0,10.96,13.37,47.59359,-54.27349
2021-02-24 14:14:01+00:00,323.0,7.85,315.0,9.63,13.84,47.59359,-54.27349
2021-02-24 14:24:01+00:00,324.0,7.15,319.0,9.05,13.84,47.59359,-54.27349
2021-02-24 14:34:01+00:00,329.0,7.93,332.0,8.87,13.84,47.59359,-54.27349
2021-02-24 14:44:01+00:00,329.0,10.28,317.0,13.11,13.84,47.59359,-54.27349
2021-02-24 14:54:01+00:00,330.0,8.39,310.0,10.55,13.84,47.59359,-54.27349
2021-02-24 15:04:01+00:00,313.0,10.89,315.0,11.97,13.84,47.59359,-54.27349
2021-02-24 15:14:01+00:00,317.0,10.97,317.0,12.55,13.92,47.59359,-54.27349
2021-02-24 15:24:01+00:00,330.0,9.01,317.0,10.67,13.92,47.59359,-54.27349
2021-02-24 15:34:01+00:00,320.0,11.95,321.0,13.8,13.92,47.59359,-54.27349
2021-02-24 15:44:01+00:00,327.0,11.18,317.0,14.06,13.92,47.59359,-54.27349
2021-02-24 15:54:01+00:00,317.0,10.99,325.0,13.32,13.92,47.59359,-54.27349
2021-02-24 16:04:01+00:00,323.0,10.61,314.0,12.81,13.92,47.59359,-54.27349
2021-02-24 16:14:01+00:00,319.0,10.76,312.0,12.42,13.84,47.59359,-54.27349
2021-02-24 16:24:01+00:00,313.0,11.04,316.0,13.31,13.84,47.59359,-54.27349
2021-02-24 16:34:01+00:00,325.0,8.73,314.0,11.26,13.84,47.59359,-54.27349
2021-02-24 16:44:01+00:00,315.0,10.58,314.0,12.37,13.84,47.59359,-54.27349
2021-02-24 16:54:01+00:00,329.0,9.76,316.0,12.45,13.84,47.59359,-54.27349
2021-02-24 17:04:01+00:00,326.0,11.11,324.0,14.34,13.84,47.59359,-54.27349
2021-02-24 17:14:01+00:00,323.0,10.36,312.0,12.32,13.84,47.59359,-54.27349
2021-02-24 17:24:01+00:00,327.0,12.24,323.0,14.89,13.84,47.59359,-54.27349
2021-02-24 17:34:01+00:00,331.0,12.19,329.0,14.01,13.84,47.59359,-54.27349
2021-02-24 17:44:01+00:00,321.0,12.15,321.0,13.96,13.84,47.59359,-54.27349
2021-02-24 17:54:01+00:00,324.0,10.5,317.0,13.09,13.84,47.59359,-54.27349
2021-02-24 18:04:01+00:00,323.0,13.87,323.0,16.24,13.84,47.59359,-54.27349
2021-02-24 18:14:01+00:00,323.0,13.94,326.0,15.41,13.92,47.59359,-54.27349
2021-02-24 18:24:01+00:00,319.0,11.76,321.0,13.73,13.92,47.59359,-54.27349
2021-02-24 18:34:01+00:00,331.0,11.02,324.0,13.35,13.92,47.59359,-54.27349
2021-02-24 18:44:01+00:00,322.0,13.23,325.0,15.82,13.92,47.59359,-54.27349
2021-02-24 18:54:01+00:00,325.0,9.8,315.0,12.97,13.92,47.59359,-54.27349
2021-02-24 19:04:01+00:00,326.0,11.6,326.0,13.8,13.92,47.59359,-54.27349
2021-02-24 19:14:01+00:00,320.0,12.62,323.0,14.07,13.84,47.59359,-54.27349
2021-02-24 19:24:01+00:00,318.0,12.33,319.0,15.63,13.84,47.59359,-54.27349
2021-02-24 19:34:01+00:00,322.0,12.76,325.0,14.31,13.84,47.59359,-54.27349
2021-02-24 19:44:01+00:00,328.0,12.92,327.0,15.72,13.84,47.59359,-54.27349
2021-02-24 19:54:01+00:00,325.0,12.88,325.0,15.11,13.84,47.59359,-54.27349
2021-02-24 20:04:01+00:00,324.0,12.91,324.0,14.51,13.84,47.59359,-54.27349
2021-02-24 20:14:01+00:00,319.0,10.1,312.0,11.62,13.68,47.59359,-54.27349
2021-02-24 20:24:01+00:00,321.0,11.55,322.0,14.29,13.68,47.59359,-54.27349
2021-02-24 20:34:01+00:00,322.0,13.67,323.0,14.96,13.68,47.59359,-54.27349
2021-02-24 20:44:01+00:00,324.0,13.0,330.0,17.12,13.68,47.59359,-54.27349
2021-02-24 20:54:01+00:00,317.0,11.53,322.0,13.13,13.68,47.59359,-54.27349
2021-02-24 21:04:01+00:00,319.0,10.69,313.0,12.74,13.68,47.59359,-54.27349
2021-02-24 21:14:01+00:00,312.0,9.87,314.0,11.35,13.05,47.59359,-54.27349
2021-02-24 21:24:01+00:00,320.0,7.91,324.0,9.2,13.05,47.59359,-54.27349
2021-02-24 21:34:01+00:00,323.0,7.82,306.0,10.39,13.05,47.59359,-54.27349
2021-02-24 21:44:01+00:00,321.0,9.03,316.0,11.71,13.05,47.59359,-54.27349
2021-02-24 21:54:01+00:00,307.0,8.99,305.0,10.51,13.05,47.59359,-54.27349
2021-02-24 22:04:01+00:00,319.0,10.02,317.0,12.08,13.05,47.59359,-54.27349
2021-02-24 22:14:01+00:00,316.0,9.08,316.0,10.67,12.57,47.59359,-54.27349
2021-02-24 22:24:01+00:00,319.0,10.77,313.0,12.22,12.57,47.59359,-54.27349
2021-02-24 22:34:01+00:00,328.0,11.91,327.0,14.12,12.57,47.59359,-54.27349
2021-02-24 22:44:01+00:00,316.0,10.99,315.0,12.55,12.57,47.59359,-54.27349
2021-02-24 22:54:01+00:00,324.0,11.66,326.0,13.61,12.57,47.59359,-54.27349
2021-02-24 23:04:01+00:00,320.0,9.83,316.0,11.63,12.57,47.59359,-54.27349
2021-02-24 23:14:01+00:00,319.0,9.89,321.0,11.68,12.41,47.59359,-54.27349
2021-02-24 23:24:01+00:00,312.0,7.75,304.0,10.17,12.41,47.59359,-54.27349
2021-02-24 23:34:01+00:00,309.0,8.74,304.0,10.37,12.41,47.59359,-54.27349
2021-02-24 23:44:01+00:00,311.0,8.2,303.0,10.5,12.41,47.59359,-54.27349
2021-02-24 23:54:01+00:00,316.0,10.63,316.0,12.22,12.41,47.59359,-54.27349
